STARLINK-4000 (52605 NORAD) Tracking and Keplerian Element Data

This shows tracking and keplerian element data for the satellite.

Feedback or suggestion? Click here.




ElementValue
Catalog52605
NameSTARLINK-4000
Epoch Orbit130
Epoch Day167.08334491
Epoch Year2022
RAAN282.6869
Inclination53.2172
Eccentricity0.0001186
Argument of Perigee64.068
Mean Anonmoly353.3992
Mean Motion15.36279511
Decay Rate-0.00840593
L11 52605U 22052H 22167.08334491 -.00840593 00000+0 -25354-1 0 9999
L22 52605 53.2172 282.6869 0001186 64.0680 353.3992 15.36279511 1309

Live tracking and technical data element details for STARLINK-4000 (NORAD 52605). STARLINK-4000 can be tracked NOW for your location showing map with azimuth and elevation plus other details from your city location.

Track the satellite on the map from your city or location and see movement details for azimuth, elevation, latitude, longitude, range, height, and movement on the map or in text.







IsCatalogInMostPopularTable: catalog: 52605, numindb: 1
Update: records affected: 1



GetName: 52605 STARLINK-4000

Hit Count: updated at: Sat, 25 Jun 2022 04:53:53 GMT